CW0677 Weather Reports


Display with metric or nautical units.
time (UTC)temp
F
wind
direction
speed
MPH
gust
MPH
rain 1hr
in
rain 24hr
in
rain mn
in
humidity
%
barometer
mb
20260504000057 61 212 5.0 13.0 0.00 0.00 0.00 71 1013.0
20260503234552 62 269 7.0 14.0 0.00 0.00 0.00 70 1012.9
20260503233053 63 269 4.0 12.0 0.00 0.00 0.00 67 1012.8
20260503231556 64 281 4.0 9.0 0.00 0.00 0.00 63 1012.7
20260503230058 63 261 6.0 10.0 0.00 0.00 0.00 63 1012.5
20260503224556 64 223 5.0 9.0 0.00 0.00 0.00 63 1012.5
20260503223055 63 255 5.0 10.0 0.00 0.00 0.00 64 1012.5
20260503221555 63 261 7.0 15.0 0.00 0.00 0.00 66 1012.5
20260503220111 63 266 6.0 12.0 0.00 0.00 0.00 67 1012.6
20260503214555 63 217 3.0 10.0 0.00 0.00 0.00 67 1012.7
20260503213056 63 213 2.0 9.0 0.00 0.00 0.00 66 1012.5
20260503211608 63 0 2.0 9.0 0.00 0.00 0.00 66 1012.5
20260503210057 63 169 2.0 9.0 0.00 0.00 0.00 66 1012.6
20260503204557 62 306 3.0 9.0 0.00 0.00 0.00 69 1012.5
20260503203056 62 28 3.0 9.0 0.00 0.00 0.00 68 1012.8
20260503201558 62 278 4.0 11.0 0.00 0.00 0.00 69 1012.9
20260503200057 62 275 4.0 9.0 0.00 0.00 0.00 68 1012.9
20260503194556 60 155 3.0 7.0 0.00 0.00 0.00 70 1013.0
20260503193120 60 206 2.0 7.0 0.00 0.00 0.00 72 1013.1
20260503191600 60 183 1.0 3.0 0.00 0.00 0.00 72 1013.3
20260503190055 60 9 1.0 4.0 0.00 0.00 0.00 73 1013.1
20260503184556 58 309 0.0 3.0 0.00 0.00 0.00 76 1013.1
20260503183057 57 250 2.0 6.0 0.00 0.00 0.00 77 1013.3
20260503181623 57 227 0.0 6.0 0.00 0.00 0.00 76 1013.2
20260503180134 57 256 3.0 7.0 0.00 0.00 0.00 77 1013.2
20260503174559 58 223 3.0 8.0 0.00 0.00 0.00 75 1013.2
20260503173100 58 280 1.0 6.0 0.00 0.00 0.00 77 1012.9
20260503171603 57 216 3.0 8.0 0.00 0.00 0.00 79 1012.8
20260503170104 57 225 2.0 7.0 0.00 0.00 0.00 79 1012.9
20260503120107 54 0 0.0 4.0 0.00 0.00 0.00 88 1010.7
20260503100108 54 254 0.0 3.0 0.00 0.00 0.00 88 1010.8
20260503081559 54 178 1.0 5.0 0.00 0.00 0.00 86 1011.4
20260503071615 55 250 1.0 3.0 0.00 0.00 0.00 84 1011.6
20260503060116 55 0 0.0 5.0 0.00 0.00 0.00 84 1012.0
20260503054603 55 140 2.0 4.0 0.00 0.00 0.00 84 1012.0
20260503053058 55 0 0.0 2.0 0.00 0.00 0.00 83 1012.0
20260503051553 55 226 0.0 3.0 0.00 0.00 0.00 83 1012.1
20260503050059 55 0 0.0 4.0 0.00 0.00 0.00 83 1012.1
20260503044626 55 0 1.0 4.0 0.00 0.00 0.00 83 1012.1
20260503043058 55 198 1.0 4.0 0.00 0.00 0.00 82 1012.0
20260503041559 55 192 0.0 4.0 0.00 0.00 0.00 82 1011.9
20260503040110 55 0 1.0 5.0 0.00 0.00 0.00 82 1011.7
20260503034602 55 0 1.0 4.0 0.00 0.00 0.00 82 1011.6
20260503033054 55 200 2.0 5.0 0.00 0.00 0.00 81 1011.4
20260503031557 55 179 1.0 4.0 0.00 0.00 0.00 81 1011.3
20260503030109 56 273 1.0 6.0 0.00 0.00 0.00 81 1011.2
20260503024600 56 234 2.0 5.0 0.00 0.00 0.00 80 1011.3
20260503023059 56 205 3.0 8.0 0.00 0.00 0.00 80 1011.3
20260503021557 56 198 1.0 9.0 0.00 0.00 0.00 79 1011.3
20260503020108 56 172 2.0 10.0 0.00 0.00 0.00 79 1011.3
20260503014606 57 209 2.0 9.0 0.00 0.00 0.00 79 1011.4
20260503013113 57 220 3.0 10.0 0.00 0.00 0.00 79 1011.6
20260503011556 57 212 4.0 8.0 0.00 0.00 0.00 78 1011.6
20260503010055 58 177 3.0 9.0 0.00 0.00 0.00 77 1011.5
20260503004600 58 240 5.0 13.0 0.00 0.00 0.00 76 1011.6
20260503003054 58 283 5.0 9.0 0.00 0.00 0.00 77 1011.6
20260503001557 59 195 3.0 11.0 0.00 0.00 0.00 76 1011.6